Flag for Portugal Weather past 2 weeks in Viana do Castelo, Portugal

Now
64 °F

Clear.


Feels Like: 64 °F
Forecast: 61 / 70 °F
Wind: 6 mph from South

Location: Porto / Pedras Rubras

Current Time: Jul 31, 2014 at 5:28:44 AM

Latest Report: Jul 31, 2014 at 4:30 AM


Visibility: 10 mi

Pressure: 29.92 "Hg

Humidity: 88%

Dew point: 61 °F

Location of Viana do CasteloLocation

Historic Weather in Viana do Castelo — Graph

°F

Viana do Castelo temperature yesterday

Maximum temperature yesterday: 90 °F (at 1:30 PM)
Minimum temperature yesterday: 66 °F (at 11:00 PM)
Average temperature yesterday: 77 °F

Past Weeks' High & Low Weather Summary

 TemperatureHumidityPressure
High90 °F (Jul 30, 1:30 PM)100% (Jul 16, 4:00 AM)30.21 "Hg (Jul 16, 4:00 AM)
Low54 °F (Jul 21, 6:00 AM)27% (Jul 30, 1:30 PM)29.83 "Hg (Jul 19, 3:00 AM)
Average67 °F83%29.99 "Hg
* Reported Jul 16 4:00 AM — Jul 31 4:00 AM, Viana do Castelo, Weather by CustomWeather, © 2014

Note: Actual official high and low records may vary slightly from our data, if they occured in-between our weather recording intervals... More about our weather records

Advertising

Viana do Castelo weather history for previous 24 hours

 ConditionsComfort  
Time TempWeatherWind HumidityBarometerVisibility
4:00 AM
Jul 31
64 °FClear.5 mph88%29.92 "Hg10 mi
3:30 AM64 °FClear.6 mph88%29.92 "Hg10 mi
3:00 AM63 °FClear.6 mph94%29.92 "Hg10 mi
2:30 AM64 °FClear.7 mph88%29.92 "Hg10 mi
2:00 AM63 °FClear.7 mph88%29.92 "Hg10 mi
1:30 AM63 °FClear.5 mph94%29.92 "Hg10 mi
1:00 AM64 °FClear.3 mph88%29.92 "Hg10 mi
12:30 AM63 °FClear.5 mph94%29.92 "Hg10 mi
12:00 AM63 °FClear.6 mph88%29.92 "Hg10 mi
11:30 PM
Jul 30
68 °FClear.6 mph78%29.92 "Hg10 mi
11:00 PM66 °FClear.No wind78%29.92 "Hg10 mi
10:30 PM68 °FClear.No wind73%29.92 "Hg10 mi
10:00 PM70 °FClear.1 mph64%29.92 "Hg10 mi
9:30 PM72 °FPassing clouds.5 mph61%29.89 "HgN/A
9:00 PM73 °FSunny.5 mph57%29.89 "Hg10 mi
8:30 PM75 °FSunny.6 mph57%29.89 "Hg10 mi
8:00 PM79 °FSunny.7 mph48%29.89 "Hg10 mi
7:30 PM81 °FSunny.6 mph42%29.89 "Hg10 mi
6:30 PM82 °FPassing clouds.7 mph40%29.89 "HgN/A
6:00 PM84 °FPassing clouds.8 mph40%29.89 "HgN/A
5:30 PM82 °FPassing clouds.8 mph42%29.89 "HgN/A
5:00 PM82 °FPassing clouds.7 mph42%29.89 "HgN/A
4:00 PM84 °FPassing clouds.9 mph43%29.92 "HgN/A
3:30 PM82 °FSunny.9 mph42%29.92 "Hg10 mi
3:00 PM84 °FSunny.7 mph40%29.92 "Hg10 mi
2:30 PM84 °FPassing clouds.7 mph35%29.92 "HgN/A
2:00 PM84 °FPassing clouds.9 mph37%29.92 "HgN/A
1:30 PM90 °FPassing clouds.7 mph27%29.92 "HgN/A
1:00 PM88 °FPassing clouds.7 mph29%29.92 "HgN/A
12:30 PM86 °FPassing clouds.9 mph29%29.92 "HgN/A
12:00 PM86 °FPassing clouds.9 mph29%29.92 "HgN/A
11:30 AM82 °FSunny.13 mph32%29.92 "Hg10 mi
11:00 AM82 °FPassing clouds.13 mph35%29.92 "HgN/A
10:51 AM82 °FPassing clouds.13 mph35%29.92 "HgN/A
10:30 AM79 °FSunny.13 mph37%29.92 "Hg10 mi
10:00 AM79 °FSunny.15 mph39%29.92 "Hg10 mi
9:30 AM77 °FSunny.16 mph39%29.92 "Hg10 mi
9:00 AM75 °FPassing clouds.15 mph41%29.89 "HgN/A
8:30 AM75 °FPassing clouds.14 mph44%29.92 "HgN/A
8:00 AM73 °FPassing clouds.12 mph44%29.89 "HgN/A
7:30 AM73 °FSunny.12 mph44%29.89 "Hg10 mi
7:00 AM73 °FPassing clouds.12 mph44%29.89 "HgN/A
6:30 AM73 °FClear.13 mph41%29.89 "Hg10 mi
6:00 AM73 °FClear.10 mph41%29.89 "Hg10 mi
5:30 AM73 °FClear.8 mph41%29.89 "Hg10 mi
5:00 AM73 °FClear.7 mph44%29.89 "Hg10 mi
Weather by CustomWeather, © 2014

See weather overviewHow to use our weather pages